User: anonymous   Login
Location: *
(49.9853°N, 3.5569°E)
Time: 11:15:03
(UTC+00:00)
Language:

Meteor 1-24 Rocket - Orbit

View from above orbital plane
View from above orbital plane
View from above satellite
View from above satellite

Ground track
Ground track

The orbit data is extracted from the following two-line orbital elements,

1  8800U 76032B   19323.80665407 +.00000038 +00000-0 +13537-4 0  9992
2  8800 081.2519 075.7474 0094807 197.7480 162.0373 14.10135980242790
Epoch (UTC): 19 November 2019 19:21:34
Eccentricity: 0.0094807
inclination: 81.2519°
perigee height: 790 km
apogee height: 927 km
right ascension of ascending node: 75.7474°
argument of perigee: 197.7480°
revolutions per day: 14.10135980
mean anomaly at epoch: 162.0373°
orbit number at epoch: 24279

The dashed part of the orbit path shows where the satellite is in the earth's shadow,  

DLR